"Pseudo-MPEC" for N00eyw9

Created 2019 Jun 19 17:07:25 UT using Find_Orb

Click here for an explanation of pseudo-MPECs

 
 Astrometry: 
     N00eyw9  S2019 06 09-qkkfI$L'9%)p08@ulI;6p@J]7j3\5,:2@-%yjO!TguP3xEJn;DRC51
     N00eyw9  s2019 06 09`0wsl2sxydFaDyQs!,aP6tO[DCPh)(LrlOKs)5?DY?u-t[nJKhS,C51
     N00eyw9  S2019 06 10gQ]/G@8MFnE8Cp1`+J?$FLx[t-=0m*a*9.J+[Jy=wQ(#7gN0kN7CC51
     N00eyw9  s2019 06 10/1pN02KHL3M1nw1Nn.Ywepd9'0gSQOSGX=ejhhp!;(IlmRaU18@\C51
     N00eyw9  S2019 06 10VZcf![tRd'TBEsgg;]CV?F#2xdgdV.2B=yCxMPbT*_yWgscd)]0,C51
     N00eyw9  s2019 06 10ocJ7'E'mADFdBsn^MRwM0#n]AXf$hMM+wd2X/9K*7AstrometryqC51
     N00eyw9  S2019 06 10o3jcrqIDMlcH$)LGVyRTe2'X72pb[)RDU#:Yt,n7.MA4twg++kq3C51
     N00eyw9  s2019 06 10$.EtpW$gsF(m,P+:#NQW;XcG#Z4'CYUm93J=T*62^,C@#NKZC)CDC51
     N00eyw9  S2019 06 10-XXhUkD*1LHeV8eBPredacted;K_MKYPS*1v4.uufS=uyax)L$+7C51
     N00eyw9  s2019 06 10[xV#N',uR_Z=6HL1Cl`Bq@!ND`fY^v7gXSCd)O$cm:1s%Tewn-oJC51
     N00eyw9 KC2019 06 11'Jy0?_I;P6M*Y83.PU0aN5o:fc![h]+gcp`?!SU)7hA$P7T,G;46291
     N00eyw9 KC2019 06 110(VM*8;gw\*GB,fx9u'P=.n9bT:Wh*gq`oUxdvPGwCfAZclickmH291
     N00eyw9  S2019 06 15d1$sY=53WmUa4H]5H1*Ik\l2T4lG6VX;)k2?XD24_na^*b,oFUa\C51
     N00eyw9  s2019 06 15!M6i?^ZOpOYbaR@+d.k#RanbVoqqQsDhb=Bmvq83X3vuc:Rpq9dYC51
     N00eyw9  S2019 06 15pYQAeJf-f]3c*c40VGBi@rd)g=y^0qZQHLBIm%6VdjtV8qyXi=;0C51
     N00eyw9  s2019 06 154;HE3@Ydh[[oW^b7u!ubO+F*2j!NT6C#5VCn@e*UZa:vx5:Sd#)oC51
     N00eyw9  S2019 06 15W)SjMT(D;+YqNNkm2GNsaJLP?Y:vbc-FpwsJoUId`([h0M6BNdpiC51
     N00eyw9  s2019 06 15hv?aU37vElvkpFG?0al*fs@c!^YjLU/h0vY(L$Ulh!9beT1^**$mC51
     N00eyw9  S2019 06 15_bOi[8WF46(`o)XJu!%hcDB'V'1:_YH_O7AherehHAV8Iq-,O1'PC51
     N00eyw9  s2019 06 15jIm5Ftk'`_f?_4X5%SWMtgfx^M*h9fr]ifr5:=#)sq,Qw_bJZPj2C51
     N00eyw9  S2019 06 154rV1\OHL;AaU8$0oa]2Xi=UOZZc0JuxvkU-N^VyQa.C?mZVYmEvNC51
     N00eyw9  s2019 06 150\7@afs]X(E,fU`?,!M)AFvU/H!`KforPpagkH.d`fF+Lf`2+F32C51
     N00eyw9  S2019 06 15).XZd4if6O7fFS-7U;U;[U-A:?L:-8D;q$Y_mFuC7;CjIZFi;DaeC51
     N00eyw9  s2019 06 150[kKh)o]TM=:@=i=.+`y.tycnZ-dBLu#=FE!o(/By#pmZ%Rt$:oWC51
     N00eyw9  S2019 06 16@2K!t6wFe1ysZ[(V[,rQS,V_'4SPEsbqN\a%]L%!7XtK:V'uyo,7C51
     N00eyw9  s2019 06 16.g%a=explanationK5Yv=p7CS=TT[(%u^,JU_*$EA32GN)Lcc'Y9C51

Station data:
(291) LPL/Spacewatch II  (N31.961669 W111.599905)  US/Arizona.  Observers J.
   V. Scotti, R. S. McMillan. 1.8-m f/2.7 reflector + CCD.
(C51) WISE. Measurers A. Mainzer, E. Wright, J. Bauer, T. Grav, J. Dailey, J.
   Masiero, R. Cutri, R. McMillan, R. Walker.

Orbital elements:  N00eyw9
   Perihelion 2019 Jun 15.969997 TT = 23:16:47 (JD 2458650.469997)
Epoch 2019 Jun 16.0 TT = JDT 2458650.5   Earth MOID: 0.7175   AutoNEOCP
M   0.00567411                      (J2000 ecliptic)
n   0.18912057     Peri.  262.49984
a   3.00591620     Node   329.90221
e   0.4572169      Incl.   16.24725
P   5.21           H   17.0     G   0.15   q 1.63156036  Q 4.38027205
From 14 observations 2019 June 9-16; mean residual 5".56
Residuals in arcseconds: 
190609 C51  7.0+  3.4-    190611 291  3.7+  .40+    190615 C51  1.4-  .55-    
190610 C51  6.8-  .49+    190611 291  2.4+  .01-    190615 C51  .57-  .26-    
190610 C51  7.5-  .12+    190615 C51  8.9-  2.1+    190615 C51  5.5+  1.9-    
190610 C51  9.2-  .43+    190615 C51  6.5-  1.2+    190616 C51 16.4+  3.6-    
190610 C51 10.1-  .26+    190615 C51  7.0-  .62+    

Ephemerides (geocentric):
Date (UTC) HH   RA              Dec         delta   r     elong  mag
---- -- -- --  -------------   -----------  ------ ------ -----  ---
2019 06 19 17  12 14 29.140   -30 36 14.39  1.0206 1.6319 106.5 19.6
2019 06 19 18  12 14 34.132   -30 36 24.85  1.0208 1.6319 106.5 19.6
2019 06 19 19  12 14 39.126   -30 36 35.31  1.0210 1.6319 106.5 19.6
2019 06 19 20  12 14 44.124   -30 36 45.77  1.0213 1.6319 106.5 19.6
2019 06 19 21  12 14 49.125   -30 36 56.25  1.0215 1.6319 106.4 19.6
2019 06 19 22  12 14 54.130   -30 37 06.72  1.0217 1.6320 106.4 19.6
2019 06 19 23  12 14 59.138   -30 37 17.21  1.0220 1.6320 106.4 19.6
2019 06 20 00  12 15 04.149   -30 37 27.69  1.0222 1.6320 106.4 19.6
2019 06 20 01  12 15 09.164   -30 37 38.19  1.0224 1.6320 106.4 19.6
2019 06 20 02  12 15 14.182   -30 37 48.69  1.0227 1.6320 106.3 19.6
2019 06 20 03  12 15 19.203   -30 37 59.19  1.0229 1.6320 106.3 19.6
2019 06 20 04  12 15 24.227   -30 38 09.70  1.0232 1.6320 106.3 19.6
2019 06 20 05  12 15 29.255   -30 38 20.22  1.0234 1.6320 106.3 19.6
2019 06 20 06  12 15 34.287   -30 38 30.74  1.0236 1.6320 106.3 19.6
2019 06 20 07  12 15 39.321   -30 38 41.26  1.0239 1.6320 106.3 19.6
2019 06 20 08  12 15 44.359   -30 38 51.79  1.0241 1.6320 106.2 19.6
2019 06 20 09  12 15 49.400   -30 39 02.33  1.0243 1.6321 106.2 19.6
2019 06 20 10  12 15 54.445   -30 39 12.87  1.0246 1.6321 106.2 19.6
2019 06 20 11  12 15 59.493   -30 39 23.41  1.0248 1.6321 106.2 19.6
2019 06 20 12  12 16 04.544   -30 39 33.96  1.0251 1.6321 106.2 19.6
2019 06 20 13  12 16 09.598   -30 39 44.52  1.0253 1.6321 106.2 19.6
2019 06 20 14  12 16 14.656   -30 39 55.08  1.0255 1.6321 106.1 19.6
2019 06 20 15  12 16 19.717   -30 40 05.65  1.0258 1.6321 106.1 19.6
2019 06 20 16  12 16 24.782   -30 40 16.22  1.0260 1.6321 106.1 19.6
2019 06 20 17  12 16 29.849   -30 40 26.80  1.0262 1.6321 106.1 19.6
2019 06 20 18  12 16 34.920   -30 40 37.38  1.0265 1.6321 106.1 19.6
2019 06 20 19  12 16 39.995   -30 40 47.97  1.0267 1.6321 106.1 19.6
2019 06 20 20  12 16 45.072   -30 40 58.56  1.0270 1.6322 106.0 19.6
2019 06 20 21  12 16 50.153   -30 41 09.15  1.0272 1.6322 106.0 19.6
2019 06 20 22  12 16 55.237   -30 41 19.76  1.0274 1.6322 106.0 19.6
2019 06 20 23  12 17 00.325   -30 41 30.36  1.0277 1.6322 106.0 19.6
2019 06 21 00  12 17 05.415   -30 41 40.98  1.0279 1.6322 106.0 19.6
2019 06 21 01  12 17 10.509   -30 41 51.59  1.0281 1.6322 106.0 19.6
2019 06 21 02  12 17 15.607   -30 42 02.22  1.0284 1.6322 105.9 19.6
2019 06 21 03  12 17 20.707   -30 42 12.84  1.0286 1.6322 105.9 19.6
2019 06 21 04  12 17 25.811   -30 42 23.47  1.0289 1.6322 105.9 19.6
2019 06 21 05  12 17 30.918   -30 42 34.11  1.0291 1.6323 105.9 19.6
2019 06 21 06  12 17 36.029   -30 42 44.75  1.0293 1.6323 105.9 19.6
2019 06 21 07  12 17 41.142   -30 42 55.40  1.0296 1.6323 105.9 19.6
2019 06 21 08  12 17 46.259   -30 43 06.05  1.0298 1.6323 105.8 19.6
2019 06 21 09  12 17 51.380   -30 43 16.71  1.0301 1.6323 105.8 19.6
2019 06 21 10  12 17 56.503   -30 43 27.37  1.0303 1.6323 105.8 19.6
2019 06 21 11  12 18 01.630   -30 43 38.04  1.0305 1.6323 105.8 19.6
2019 06 21 12  12 18 06.760   -30 43 48.71  1.0308 1.6323 105.8 19.6
2019 06 21 13  12 18 11.893   -30 43 59.38  1.0310 1.6323 105.8 19.6
2019 06 21 14  12 18 17.030   -30 44 10.06  1.0313 1.6324 105.7 19.6
2019 06 21 15  12 18 22.169   -30 44 20.75  1.0315 1.6324 105.7 19.6
2019 06 21 16  12 18 27.312   -30 44 31.44  1.0317 1.6324 105.7 19.6